Regional Weather Roundup
Issued by NWS State College, PA

Home | Current Version | Previous Version | Text Only | Print | Product List | Glossary On
Versions: 1 2 3 4 5 6 7 8 9 10 11 12 13 14 15 16 17 18 19 20 21 22 23 24 25 26 27 28 29 30 31 32 33 34 35 36 37 38 39 40 41 42 43 44 45 46 47 48 49 50
000
ASUS41 KCTP 051410
RWRCTP

REGIONAL WEATHER ROUNDUP
NATIONAL WEATHER SERVICE STATE COLLEGE PA
1000 AM EDT SUN JUL 05 2015

Note: "fair" indicates few or no clouds below 12,000 feet with no
significant weather and/or obstructions to visibility.

* = STATION THAT DOES NOT REPORT PRECIPITATION /E.G. RAIN...SNOW...ETC/
    THUNDER OR FOG.

PAZ002>004-007>009-013>016-020>023-029>032-051500-
WESTERN PENNSYLVANIA

CITY           SKY/WX    TMP DP  RH WIND       PRES   REMARKS
ERIE           SUNNY     73  55  53 CALM      30.15S
MEADVILLE      SUNNY     68  53  58 VRB3      30.18S
FRANKLIN*      SUNNY     66  54  63 E3        30.19F
NEW CASTLE     FAIR      67  61  81 CALM      30.18F
BEAVER COUNTY  NOT AVBL
BUTLER*        SUNNY     66  57  72 NE6       30.19S
PITTSBURGH INT CLOUDY    68  58  70 E3        30.16S
PITTSBURGH     SUNNY     68  58  70 CALM      30.16R HAZE
INDIANA*       SUNNY     66  59  77 CALM      30.22R
LATROBE        SUNNY     66  63  88 CALM      30.18R
WASHINGTON CO* NOT AVBL
$$

PAZ004>006-010>012-017>019-024>028-033>037-041-042-045-046-049>053-051500-
CENTRAL PENNSYLVANIA

CITY           SKY/WX    TMP DP  RH WIND       PRES   REMARKS
BRADFORD       SUNNY     68  54  60 CALM      30.19F
DUBOIS         PTSUNNY   67  57  70 CALM      30.19R
CLEARFIELD     CLOUDY    60  59  96 CALM      30.21R FOG
JOHNSTOWN      MOSUNNY   67  56  67 S3        30.21R
ALTOONA        PTSUNNY   65  60  84 CALM      30.20S
STATE COLLEGE  CLOUDY    66  63  88 CALM      30.19R
WILLIAMSPORT   CLOUDY    68  60  75 CALM      30.16R
SELINSGROVE    CLOUDY    66  62  87 NE5       30.18R
FT INDIANTOWN  CLOUDY    68  68 100 N6        30.16S
CAPITAL CITY   PTSUNNY   71  63  75 N6        30.16S
HARRISBURG     PTSUNNY   69  65  86 W6        30.15S FOG
YORK           MOSUNNY   70  64  81 NE3       30.16S
$$

PAZ038>040-043-044-047-048-054-055-060>062-067>071-051500-
EASTERN PENNSYLVANIA

CITY           SKY/WX    TMP DP  RH WIND       PRES   REMARKS
SCRANTON       CLOUDY    66  59  78 VRB3      30.18S
MOUNT POCONO   MOSUNNY   66  57  72 NW6       30.19S
ALLENTOWN      MOSUNNY   71  63  75 N7        30.16R
QUAKERTOWN*    MOSUNNY   72  64  78 N6        30.17R
READING        CLOUDY    69  63  81 N5        30.15R
LANCASTER      MOSUNNY   70  66  87 NW7       30.16R
COATESVILLE    MOSUNNY   72  66  83 W5        30.17R
POTTSTOWN      MOSUNNY   70  65  84 CALM      30.17R
BLUE BELL      MOSUNNY   73  64  73 CALM      30.15R
DOYLESTOWN     MOSUNNY   72  63  73 CALM      30.15R
WILLOW GROVE   NOT AVBL
NORTH PHILA    MOSUNNY   77  62  59 N3        30.16R
PHILADELPHIA   PTSUNNY   75  59  57 VRB3      30.15R
$$



USA.gov is the U.S. government's official web portal to all federal, state and local government web resources and services.